STARLINK-34956, 65174

Orbit data source: Space-Track

STARLINK-34956, 65174 is a payload satellite owned by SpaceX/Seattle (US) in SSO that was launched on Thu, 14 Aug 2025 UTC via an FALCON 9 launch vehicle from the Air Force Western Test Range (AFWTR). Payload-class satellites include a variety of spacecraft equipped with specific instruments for various scientific and technological missions. These include communications satellites like Starlink; space stations such as the ISS; scientific satellites like the Hubble; Earth observation satellites from companies like Planet Labs, Umbra, and HawkEye 360; GPS; miniature CubeSats for education and research; and military/defense satellites.

Loading next visibility...
Identifier
65174, 2025-175A
Orbit
SSO
Country
Flag of USUS
Related business
Manufacturer
SpaceX/Seattle
Mission
Operational Commercial Communications
Bus & Motor
STARLINK V2MO, Unknown motor
Mass
575 kg wet, ~530 kg dry
Launch date (UTC)
2025-08-14 (10 months ago)
Launch vehicle
FALCON 9
Launch site
Air Force Western Test Range (AFWTR)
Object type
Payload
Rocket body
Debris
Shape & HBR
Box + 2 Pan, 17.7 m
Radar Cross Section
36.964 m², Large (>1 m²)

Expand to show TLE details & history
Last TLE update: 12 hours ago

TLE from 12 hours ago
0 STARLINK-34956
1 65174U 25175A   26171.35531251  .00003548  00000-0  24961-3 0  9990
2 65174  97.3406  42.6785 0002203  98.0335 262.1143 15.05664846 48052
Epoch: 2026-06-20T08:31Z
TLE epoch observation values (Epoch: 2026-06-20T08:31:39.000Z)
Latitude
-0°
Longitude
6.19488°
Altitude
552.748 km
Speed
7.585 km/s
True Right ascension
02h 50m 42s
True Declination
0° 00' 00"
Sunlit
Object was in daylight at epoch
Visualization orbit readout
Latitude
Unknown
Longitude
Unknown
Altitude
Unknown
Speed
Unknown
Apparent Right ascension
Unknown
Apparent Declination
Unknown
Sunlit
N/A
Visualization observer readout
Local Sidereal Time
07:13:44
Azimuth
Unknown
Elevation
Unknown
Doppler factor
Unknown
Orbital elements
Apogee altitude
547.973 km
Perigee altitude
544.922 km
Semi-major axis
6,924.585 km
Eccentricity
0.00022
Inclination
97.3406°
RAAN
42.6785°
Arg. of periapsis
98.0335°
True anomaly
262.0893°
Mean anomaly
262.1143°
Eccentric anomaly
262.1018°
Mean motion
3.76663 °/min
Orbital period
95.58 mins
BSTAR
0.00024961
Loading maneuver chart data...
Computing Atmospheric mass density...
Loading historical data...
Loading historical data...
Loading historical data...
Loading historical data...
Loading historical data...
Loading historical data...
Loading historical data...

Documentation

Showing up to 5 results
|